TimeEDT,TemperatureF,Dew PointF,Humidity,Sea Level PressureIn,VisibilityMPH,Wind Direction,Wind SpeedMPH,Gust SpeedMPH,PrecipitationIn,Events,Conditions,WindDirDegrees,DateUTC
12:54 AM,61.0,50.0,67,30.13,10.0,Calm,Calm,-,N/A,,Clear,0,2012-10-24 04:54:00
2:54 AM,57.0,48.9,74,30.13,10.0,Calm,Calm,-,N/A,,Clear,0,2012-10-24 06:54:00
3:54 AM,59.0,50.0,72,30.13,10.0,NW,3.5,-,N/A,,Clear,310,2012-10-24 07:54:00
4:54 AM,57.0,50.0,77,30.13,10.0,WNW,4.6,-,N/A,,Clear,300,2012-10-24 08:54:00
5:54 AM,57.9,48.9,72,30.14,10.0,NW,3.5,-,N/A,,Clear,320,2012-10-24 09:54:00
6:54 AM,55.9,48.9,77,30.17,10.0,Calm,Calm,-,N/A,,Clear,0,2012-10-24 10:54:00
7:54 AM,57.9,50.0,75,30.18,10.0,Calm,Calm,-,N/A,,Clear,0,2012-10-24 11:54:00
8:54 AM,60.1,51.1,72,30.20,10.0,Calm,Calm,-,N/A,,Clear,0,2012-10-24 12:54:00
9:54 AM,66.0,52.0,60,30.20,10.0,Calm,Calm,-,N/A,,Clear,0,2012-10-24 13:54:00
10:54 AM,71.1,51.1,49,30.19,10.0,SSW,5.8,-,N/A,,Clear,200,2012-10-24 14:54:00
11:54 AM,73.9,50.0,43,30.17,10.0,Calm,Calm,-,N/A,,Clear,0,2012-10-24 15:54:00
12:54 PM,78.1,51.1,39,30.15,10.0,ESE,3.5,-,N/A,,Clear,110,2012-10-24 16:54:00
1:54 PM,79.0,48.9,35,30.12,10.0,Calm,Calm,-,N/A,,Clear,0,2012-10-24 17:54:00
2:54 PM,81.0,48.0,31,30.09,10.0,Calm,Calm,-,N/A,,Partly Cloudy,0,2012-10-24 18:54:00
3:54 PM,82.0,48.9,31,30.09,10.0,NE,5.8,-,N/A,,Clear,50,2012-10-24 19:54:00
4:54 PM,82.4,46.4,28,30.11,10.0,Calm,Calm,-,N/A,,Clear,0,2012-10-24 20:54:00
5:54 PM,79.0,48.0,34,30.09,10.0,Calm,Calm,-,N/A,,Clear,0,2012-10-24 21:54:00
6:54 PM,75.9,46.0,35,30.10,10.0,SE,4.6,-,N/A,,Clear,140,2012-10-24 22:54:00
7:54 PM,73.0,48.0,41,30.12,10.0,Calm,Calm,-,N/A,,Clear,0,2012-10-24 23:54:00
8:54 PM,68.0,48.9,50,30.13,10.0,Calm,Calm,-,N/A,,Clear,0,2012-10-25 00:54:00
9:54 PM,64.9,48.9,56,30.14,10.0,Calm,Calm,-,N/A,,Clear,0,2012-10-25 01:54:00
10:54 PM,60.1,50.0,69,30.14,10.0,WNW,3.5,-,N/A,,Clear,290,2012-10-25 02:54:00
11:54 PM,60.1,48.9,67,30.13,10.0,Calm,Calm,-,N/A,,Clear,0,2012-10-25 03:54:00